| time (UTC) | temp C | wind direction | speed KPH | gust KPH | rain 1hr cm | rain 24hr cm | rain mn cm | humidity % | barometer mb |
| 20260508100754 | 1 | 127 | 1.6 | 4.8 | 0.00 | 0.00 | 0.00 | 88 | 1005.8 |
| 20260508100253 | 1 | 121 | 0.0 | 6.4 | 0.00 | 0.00 | 0.00 | 88 | 1005.7 |
| 20260508100148 | 1 | 120 | 0.0 | 6.4 | 0.00 | 0.00 | 0.00 | 88 | 1005.8 |
| 20260508095753 | 1 | 118 | 1.6 | 6.4 | 0.00 | 0.00 | 0.00 | 88 | 1005.6 |
| 20260508095253 | 1 | 116 | 1.6 | 4.8 | 0.00 | 0.00 | 0.00 | 89 | 1005.5 |
| 20260508094752 | 1 | 114 | 1.6 | 6.4 | 0.00 | 0.00 | 0.00 | 89 | 1005.4 |
| 20260508094632 | 1 | 146 | 0.0 | 6.4 | 0.00 | 0.00 | 0.00 | 89 | 1005.5 |
| 20260508094252 | 0 | 146 | 3.2 | 6.4 | 0.00 | 0.00 | 0.00 | 89 | 1005.4 |
| 20260508093751 | 0 | 156 | 1.6 | 6.4 | 0.00 | 0.00 | 0.00 | 89 | 1005.3 |
| 20260508093251 | 0 | 159 | 1.6 | 6.4 | 0.00 | 0.00 | 0.00 | 89 | 1005.2 |
| 20260508093118 | 1 | 159 | 1.6 | 6.4 | 0.00 | 0.00 | 0.00 | 88 | 1005.2 |
| 20260508092751 | 0 | 184 | 1.6 | 6.4 | 0.00 | 0.00 | 0.00 | 88 | 1005.2 |
| 20260508092209 | 0 | 137 | 3.2 | 8.0 | 0.00 | 0.00 | 0.00 | 89 | 1005.2 |
| 20260508091708 | 0 | 114 | 3.2 | 6.4 | 0.00 | 0.00 | 0.00 | 89 | 1005.1 |
| 20260508091613 | 0 | 176 | 1.6 | 6.4 | 0.00 | 0.00 | 0.00 | 89 | 1005.1 |
| 20260508091208 | 0 | 150 | 1.6 | 4.8 | 0.00 | 0.00 | 0.00 | 89 | 1005.0 |
| 20260508090707 | 0 | 149 | 1.6 | 6.4 | 0.00 | 0.00 | 0.00 | 89 | 1005.1 |
| 20260508090207 | 0 | 143 | 0.0 | 4.8 | 0.00 | 0.00 | 0.00 | 89 | 1005.1 |
| 20260508090046 | 0 | 143 | 1.6 | 4.8 | 0.00 | 0.00 | 0.00 | 89 | 1005.1 |
| 20260508085707 | 0 | 156 | 1.6 | 4.8 | 0.00 | 0.03 | 0.00 | 89 | 1005.1 |
| 20260508085206 | 0 | 146 | 0.0 | 3.2 | 0.00 | 0.03 | 0.00 | 89 | 1005.0 |
| 20260508084706 | 0 | 146 | 0.0 | 4.8 | 0.00 | 0.03 | 0.00 | 89 | 1004.9 |
| 20260508084527 | 0 | 146 | 0.0 | 4.8 | 0.00 | 0.03 | 0.00 | 89 | 1005.0 |
| 20260508084206 | 0 | 145 | 1.6 | 4.8 | 0.00 | 0.03 | 0.00 | 89 | 1005.0 |
| 20260508083706 | 0 | 147 | 0.0 | 4.8 | 0.00 | 0.03 | 0.00 | 89 | 1004.9 |
| 20260508083205 | 0 | 147 | 1.6 | 8.0 | 0.00 | 0.03 | 0.00 | 88 | 1005.0 |
| 20260508083023 | 0 | 147 | 0.0 | 8.0 | 0.00 | 0.03 | 0.00 | 88 | 1005.0 |
| 20260508082705 | 0 | 147 | 1.6 | 8.0 | 0.00 | 0.03 | 0.00 | 89 | 1005.0 |
| 20260508082144 | 0 | 173 | 1.6 | 6.4 | 0.00 | 0.03 | 0.00 | 90 | 1005.0 |
| 20260508081644 | 0 | 154 | 0.0 | 4.8 | 0.00 | 0.03 | 0.00 | 89 | 1005.1 |
| 20260508081143 | 0 | 156 | 1.6 | 4.8 | 0.00 | 0.03 | 0.00 | 89 | 1005.0 |
| 20260508080643 | 0 | 149 | 0.0 | 6.4 | 0.00 | 0.03 | 0.00 | 89 | 1005.0 |
| 20260508080143 | 0 | 151 | 1.6 | 6.4 | 0.00 | 0.03 | 0.00 | 89 | 1005.0 |
| 20260508075642 | 0 | 156 | 1.6 | 6.4 | 0.00 | 0.03 | 0.00 | 89 | 1005.0 |
| 20260508075142 | 0 | 145 | 0.0 | 8.0 | 0.00 | 0.03 | 0.00 | 89 | 1004.9 |
| 20260508074642 | 0 | 141 | 1.6 | 8.0 | 0.00 | 0.03 | 0.00 | 89 | 1004.9 |
| 20260508074100 | 0 | 146 | 0.0 | 4.8 | 0.00 | 0.03 | 0.00 | 89 | 1004.9 |
| 20260508073538 | 0 | 145 | 0.0 | 3.2 | 0.00 | 0.03 | 0.00 | 90 | 1004.9 |
| 20260508073038 | 0 | 145 | 0.0 | 3.2 | 0.00 | 0.03 | 0.00 | 91 | 1004.9 |
| 20260508072456 | 0 | 145 | 0.0 | 1.6 | 0.00 | 0.03 | 0.00 | 91 | 1004.9 |
| 20260508071934 | 0 | 145 | 0.0 | 4.8 | 0.00 | 0.03 | 0.00 | 91 | 1004.8 |
| 20260508071434 | 0 | 145 | 1.6 | 4.8 | 0.00 | 0.03 | 0.00 | 90 | 1004.9 |
| 20260508070934 | 0 | 149 | 1.6 | 3.2 | 0.00 | 0.03 | 0.00 | 91 | 1004.9 |
| 20260508070351 | 0 | 149 | 0.0 | 1.6 | 0.00 | 0.03 | 0.00 | 89 | 1004.9 |
| 20260508065851 | 0 | 149 | 0.0 | 1.6 | 0.00 | 0.05 | 0.00 | 89 | 1005.0 |
| 20260508065329 | 0 | 149 | 0.0 | 1.6 | 0.00 | 0.05 | 0.00 | 89 | 1005.0 |
| 20260508064829 | 0 | 149 | 0.0 | 1.6 | 0.00 | 0.05 | 0.00 | 89 | 1005.0 |
| 20260508064329 | 0 | 149 | 0.0 | 0.0 | 0.00 | 0.05 | 0.00 | 88 | 1005.0 |
| 20260508063828 | 0 | 149 | 0.0 | 1.6 | 0.00 | 0.05 | 0.00 | 88 | 1005.0 |
| 20260508063328 | 1 | 149 | 0.0 | 1.6 | 0.00 | 0.05 | 0.00 | 88 | 1005.1 |
| 20260508062827 | 1 | 149 | 0.0 | 3.2 | 0.00 | 0.05 | 0.00 | 88 | 1005.2 |
| 20260508062327 | 1 | 149 | 0.0 | 3.2 | 0.00 | 0.05 | 0.00 | 86 | 1005.2 |
| 20260508061827 | 1 | 149 | 0.0 | 3.2 | 0.00 | 0.05 | 0.00 | 86 | 1005.3 |
| 20260508061326 | 1 | 150 | 0.0 | 1.6 | 0.00 | 0.05 | 0.00 | 85 | 1005.4 |
| 20260508060826 | 1 | 150 | 0.0 | 1.6 | 0.00 | 0.05 | 0.00 | 84 | 1005.4 |
| 20260508060222 | 1 | 150 | 0.0 | 3.2 | 0.00 | 0.05 | 0.00 | 85 | 1005.5 |
| 20260508055722 | 1 | 150 | 0.0 | 3.2 | 0.00 | 0.20 | 0.00 | 83 | 1005.6 |
| 20260508055222 | 1 | 150 | 0.0 | 1.6 | 0.00 | 0.20 | 0.00 | 84 | 1005.6 |
| 20260508054700 | 1 | 150 | 0.0 | 1.6 | 0.00 | 0.20 | 0.00 | 83 | 1005.6 |
| 20260508054200 | 2 | 150 | 0.0 | 3.2 | 0.00 | 0.20 | 0.00 | 81 | 1005.6 |
| 20260508053638 | 2 | 150 | 0.0 | 4.8 | 0.00 | 0.20 | 0.00 | 82 | 1005.6 |
| 20260508053150 | 2 | 150 | 0.0 | 6.4 | 0.00 | 0.20 | 0.00 | 83 | 1005.6 |
| 20260508053138 | 2 | 150 | 0.0 | 6.4 | 0.00 | 0.20 | 0.00 | 82 | 1005.6 |
| 20260508052617 | 2 | 149 | 1.6 | 8.0 | 0.00 | 0.20 | 0.00 | 83 | 1005.7 |
| 20260508052116 | 2 | 168 | 3.2 | 8.0 | 0.00 | 0.20 | 0.00 | 82 | 1005.6 |
| 20260508051631 | 2 | 146 | 3.2 | 8.0 | 0.00 | 0.20 | 0.00 | 83 | 1005.7 |
| 20260508051616 | 2 | 146 | 3.2 | 8.0 | 0.00 | 0.20 | 0.00 | 82 | 1005.6 |
| 20260508051116 | 2 | 166 | 1.6 | 6.4 | 0.00 | 0.20 | 0.00 | 84 | 1005.6 |
| 20260508050615 | 2 | 169 | 0.0 | 8.0 | 0.00 | 0.20 | 0.00 | 83 | 1005.7 |
| 20260508050115 | 2 | 150 | 1.6 | 6.4 | 0.00 | 0.20 | 0.00 | 81 | 1005.7 |
| 20260508050109 | 2 | 150 | 1.6 | 6.4 | 0.00 | 0.20 | 0.00 | 81 | 1005.8 |
| 20260508045615 | 2 | 147 | 1.6 | 6.4 | 0.00 | 0.41 | 0.00 | 80 | 1005.7 |
| 20260508045115 | 2 | 142 | 1.6 | 8.0 | 0.00 | 0.41 | 0.00 | 79 | 1005.7 |
| 20260508044614 | 2 | 135 | 1.6 | 8.0 | 0.00 | 0.41 | 0.00 | 81 | 1005.7 |
| 20260508044552 | 2 | 143 | 1.6 | 8.0 | 0.00 | 0.41 | 0.00 | 81 | 1005.7 |
| 20260508044114 | 2 | 144 | 1.6 | 8.0 | 0.00 | 0.41 | 0.00 | 81 | 1005.7 |
| 20260508043614 | 2 | 137 | 3.2 | 8.0 | 0.00 | 0.41 | 0.00 | 82 | 1005.7 |
| 20260508043113 | 2 | 144 | 1.6 | 6.4 | 0.00 | 0.41 | 0.00 | 81 | 1005.8 |
| 20260508043038 | 2 | 145 | 1.6 | 6.4 | 0.00 | 0.41 | 0.00 | 81 | 1005.9 |
| 20260508042531 | 2 | 152 | 1.6 | 6.4 | 0.00 | 0.41 | 0.00 | 79 | 1005.7 |
| 20260508042031 | 2 | 124 | 1.6 | 8.0 | 0.00 | 0.41 | 0.00 | 79 | 1005.8 |
| 20260508041520 | 2 | 129 | 3.2 | 8.0 | 0.00 | 0.41 | 0.00 | 78 | 1005.9 |
| 20260508041509 | 2 | 129 | 3.2 | 8.0 | 0.00 | 0.41 | 0.00 | 78 | 1005.9 |
| 20260508041009 | 2 | 140 | 3.2 | 4.8 | 0.00 | 0.41 | 0.00 | 79 | 1005.9 |
| 20260508040509 | 2 | 112 | 1.6 | 4.8 | 0.00 | 0.41 | 0.00 | 78 | 1006.0 |
| 20260508040009 | 2 | 108 | 0.0 | 1.6 | 0.00 | 0.41 | 0.00 | 78 | 1006.0 |
| 20260508035508 | 3 | 108 | 0.0 | 3.2 | 0.00 | 0.53 | 0.41 | 78 | 1006.1 |
| 20260508035008 | 3 | 108 | 0.0 | 3.2 | 0.00 | 0.53 | 0.41 | 77 | 1006.1 |
| 20260508034508 | 3 | 108 | 1.6 | 4.8 | 0.00 | 0.53 | 0.41 | 74 | 1006.1 |
| 20260508034008 | 3 | 108 | 1.6 | 8.0 | 0.00 | 0.53 | 0.41 | 73 | 1006.0 |
| 20260508033446 | 3 | 112 | 1.6 | 8.0 | 0.00 | 0.53 | 0.41 | 77 | 1005.9 |
| 20260508032925 | 3 | 150 | 0.0 | 6.4 | 0.00 | 0.53 | 0.41 | 79 | 1005.9 |
| 20260508032425 | 2 | 156 | 1.6 | 6.4 | 0.00 | 0.53 | 0.41 | 80 | 1005.9 |
| 20260508031924 | 3 | 149 | 1.6 | 4.8 | 0.00 | 0.53 | 0.41 | 81 | 1005.9 |
| 20260508031424 | 3 | 153 | 1.6 | 4.8 | 0.00 | 0.53 | 0.41 | 78 | 1006.0 |
| 20260508030924 | 3 | 155 | 0.0 | 1.6 | 0.00 | 0.53 | 0.41 | 77 | 1005.9 |
| 20260508030423 | 3 | 155 | 0.0 | 1.6 | 0.00 | 0.53 | 0.41 | 76 | 1005.8 |
| 20260508025902 | 3 | 155 | 0.0 | 3.2 | 0.00 | 0.69 | 0.41 | 75 | 1005.9 |
| 20260508025401 | 3 | 155 | 0.0 | 4.8 | 0.00 | 0.69 | 0.41 | 74 | 1005.9 |
| 20260508024901 | 4 | 156 | 1.6 | 4.8 | 0.00 | 0.69 | 0.41 | 71 | 1005.8 |
| 20260508024401 | 4 | 156 | 0.0 | 4.8 | 0.00 | 0.69 | 0.41 | 72 | 1005.8 |
| 20260508023900 | 5 | 156 | 1.6 | 4.8 | 0.00 | 0.69 | 0.41 | 71 | 1005.9 |
| 20260508023400 | 5 | 199 | 1.6 | 6.4 | 0.00 | 0.69 | 0.41 | 68 | 1005.9 |
| 20260508022900 | 5 | 204 | 0.0 | 6.4 | 0.00 | 0.69 | 0.41 | 68 | 1005.8 |
| 20260508022359 | 5 | 206 | 1.6 | 4.8 | 0.00 | 0.69 | 0.41 | 66 | 1005.8 |
| 20260508021859 | 6 | 206 | 1.6 | 6.4 | 0.00 | 0.69 | 0.41 | 65 | 1005.8 |
| 20260508021338 | 6 | 206 | 0.0 | 6.4 | 0.00 | 0.69 | 0.41 | 60 | 1005.8 |
| 20260508020837 | 6 | 207 | 1.6 | 6.4 | 0.00 | 0.69 | 0.41 | 57 | 1005.9 |
| 20260508020337 | 6 | 231 | 1.6 | 6.4 | 0.00 | 0.69 | 0.41 | 56 | 1005.9 |
| 20260508015836 | 6 | 228 | 1.6 | 4.8 | 0.00 | 0.71 | 0.41 | 58 | 1005.9 |
| 20260508015336 | 7 | 228 | 0.0 | 6.4 | 0.00 | 0.71 | 0.41 | 60 | 1005.9 |
| 20260508014836 | 7 | 230 | 3.2 | 11.3 | 0.00 | 0.71 | 0.41 | 55 | 1005.9 |
| 20260508014335 | 7 | 228 | 3.2 | 12.9 | 0.00 | 0.71 | 0.41 | 57 | 1005.7 |
| 20260508013835 | 7 | 228 | 4.8 | 12.9 | 0.00 | 0.71 | 0.41 | 56 | 1005.8 |
| 20260508013335 | 7 | 224 | 6.4 | 12.9 | 0.00 | 0.71 | 0.41 | 55 | 1005.8 |
| 20260508012834 | 7 | 218 | 4.8 | 12.9 | 0.00 | 0.71 | 0.41 | 58 | 1005.8 |
| 20260508012334 | 7 | 206 | 4.8 | 11.3 | 0.00 | 0.71 | 0.41 | 58 | 1005.8 |
| 20260508011813 | 7 | 214 | 4.8 | 11.3 | 0.00 | 0.71 | 0.41 | 56 | 1005.7 |
| 20260508011702 | 7 | 206 | 4.8 | 14.5 | 0.00 | 0.71 | 0.41 | 62 | 1005.8 |
| 20260508011312 | 7 | 228 | 3.2 | 14.5 | 0.00 | 0.71 | 0.41 | 54 | 1005.7 |
| 20260508010812 | 7 | 256 | 4.8 | 11.3 | 0.00 | 0.71 | 0.41 | 52 | 1005.7 |
| 20260508010312 | 7 | 233 | 6.4 | 12.9 | 0.00 | 0.71 | 0.41 | 54 | 1005.7 |
| 20260508010145 | 7 | 232 | 4.8 | 12.9 | 0.00 | 0.71 | 0.41 | 55 | 1005.8 |
| 20260508005811 | 7 | 224 | 3.2 | 12.9 | 0.00 | 0.79 | 0.41 | 53 | 1005.8 |
| 20260508005311 | 8 | 231 | 3.2 | 9.7 | 0.00 | 0.79 | 0.41 | 52 | 1005.8 |
| 20260508004811 | 8 | 226 | 1.6 | 14.5 | 0.00 | 0.79 | 0.41 | 52 | 1005.7 |
| 20260508004632 | 8 | 226 | 1.6 | 14.5 | 0.00 | 0.79 | 0.41 | 52 | 1005.8 |
| 20260508004311 | 8 | 226 | 6.4 | 14.5 | 0.00 | 0.79 | 0.41 | 50 | 1005.7 |
| 20260508003810 | 8 | 236 | 4.8 | 14.5 | 0.00 | 0.79 | 0.41 | 50 | 1005.7 |
| 20260508003310 | 8 | 237 | 4.8 | 19.3 | 0.00 | 0.79 | 0.41 | 50 | 1005.6 |
| 20260508003122 | 8 | 249 | 6.4 | 19.3 | 0.00 | 0.79 | 0.41 | 49 | 1005.5 |
| 20260508002810 | 8 | 220 | 11.3 | 19.3 | 0.00 | 0.79 | 0.41 | 49 | 1005.5 |
| 20260508002248 | 8 | 226 | 4.8 | 14.5 | 0.00 | 0.79 | 0.41 | 50 | 1005.5 |
| 20260508001748 | 8 | 241 | 4.8 | 16.1 | 0.00 | 0.79 | 0.41 | 52 | 1005.5 |
| 20260508001553 | 8 | 256 | 1.6 | 16.1 | 0.00 | 0.79 | 0.41 | 50 | 1005.5 |
| 20260508001248 | 8 | 260 | 4.8 | 19.3 | 0.00 | 0.79 | 0.41 | 49 | 1005.4 |
| 20260508000747 | 9 | 248 | 6.4 | 20.9 | 0.00 | 0.79 | 0.41 | 48 | 1005.3 |
| 20260508000249 | 9 | 230 | 11.3 | 29.0 | 0.00 | 0.79 | 0.41 | 48 | 1005.3 |
| 20260508000043 | 9 | 249 | 8.0 | 29.0 | 0.00 | 0.79 | 0.41 | 48 | 1005.4 |
| 20260507235746 | 9 | 218 | 12.9 | 29.0 | 0.00 | 0.81 | 0.41 | 48 | 1005.2 |
| 20260507235246 | 9 | 249 | 6.4 | 19.3 | 0.00 | 0.81 | 0.41 | 48 | 1005.2 |
| 20260507234746 | 10 | 199 | 14.5 | 27.4 | 0.00 | 0.81 | 0.41 | 48 | 1005.1 |
| 20260507234519 | 10 | 232 | 4.8 | 27.4 | 0.00 | 0.81 | 0.41 | 47 | 1005.1 |
| 20260507234245 | 10 | 228 | 9.7 | 27.4 | 0.00 | 0.81 | 0.41 | 46 | 1005.0 |
| 20260507233745 | 10 | 218 | 11.3 | 22.5 | 0.00 | 0.81 | 0.41 | 46 | 1004.9 |
| 20260507233245 | 10 | 203 | 8.0 | 20.9 | 0.00 | 0.81 | 0.41 | 45 | 1004.8 |
| 20260507233002 | 10 | 219 | 11.3 | 25.7 | 0.00 | 0.81 | 0.41 | 45 | 1004.8 |
| 20260507232744 | 10 | 211 | 12.9 | 25.7 | 0.00 | 0.81 | 0.41 | 44 | 1004.6 |
| 20260507232244 | 11 | 223 | 9.7 | 22.5 | 0.00 | 0.81 | 0.41 | 44 | 1004.6 |
| 20260507231701 | 11 | 285 | 14.5 | 25.7 | 0.00 | 0.81 | 0.41 | 43 | 1004.4 |
| 20260507231201 | 11 | 235 | 14.5 | 25.7 | 0.00 | 0.81 | 0.41 | 43 | 1004.4 |
| 20260507230700 | 11 | 231 | 6.4 | 27.4 | 0.00 | 0.81 | 0.41 | 44 | 1004.3 |
| 20260507230200 | 11 | 262 | 12.9 | 29.0 | 0.00 | 0.81 | 0.41 | 43 | 1004.2 |
| 20260507225700 | 11 | 249 | 19.3 | 32.2 | 0.00 | 1.37 | 0.41 | 42 | 1004.0 |
| 20260507225159 | 12 | 245 | 17.7 | 32.2 | 0.00 | 1.37 | 0.41 | 43 | 1003.8 |
| 20260507224659 | 12 | 224 | 16.1 | 32.2 | 0.00 | 1.37 | 0.41 | 43 | 1003.8 |
| 20260507224138 | 12 | 242 | 17.7 | 32.2 | 0.00 | 1.37 | 0.41 | 42 | 1003.6 |
| 20260507223638 | 12 | 276 | 11.3 | 30.6 | 0.00 | 1.37 | 0.41 | 44 | 1003.6 |
| 20260507223137 | 12 | 232 | 16.1 | 29.0 | 0.00 | 1.37 | 0.41 | 43 | 1003.4 |
| 20260507222637 | 13 | 219 | 9.7 | 24.1 | 0.00 | 1.37 | 0.41 | 44 | 1003.3 |
| 20260507222137 | 13 | 244 | 12.9 | 27.4 | 0.00 | 1.37 | 0.41 | 43 | 1003.3 |
| 20260507221636 | 13 | 275 | 11.3 | 25.7 | 0.00 | 1.37 | 0.41 | 44 | 1003.2 |
| 20260507221136 | 13 | 222 | 14.5 | 32.2 | 0.00 | 1.37 | 0.41 | 44 | 1003.2 |
| 20260507220635 | 13 | 241 | 16.1 | 32.2 | 0.00 | 1.37 | 0.41 | 44 | 1003.0 |
| 20260507220135 | 13 | 290 | 16.1 | 32.2 | 0.00 | 1.37 | 0.41 | 45 | 1003.0 |
| 20260507215635 | 13 | 227 | 16.1 | 29.0 | 0.00 | 1.55 | 0.41 | 46 | 1002.9 |
| 20260507215135 | 13 | 258 | 14.5 | 29.0 | 0.00 | 1.55 | 0.41 | 46 | 1002.9 |
| 20260507214634 | 13 | 234 | 16.1 | 29.0 | 0.00 | 1.55 | 0.41 | 46 | 1002.9 |
| 20260507214134 | 13 | 279 | 9.7 | 27.4 | 0.00 | 1.55 | 0.41 | 44 | 1002.7 |
| 20260507213634 | 13 | 299 | 11.3 | 20.9 | 0.00 | 1.55 | 0.41 | 41 | 1002.6 |
| 20260507213133 | 13 | 245 | 4.8 | 24.1 | 0.00 | 1.55 | 0.41 | 40 | 1002.6 |
| 20260507212633 | 14 | 232 | 12.9 | 25.7 | 0.00 | 1.55 | 0.41 | 37 | 1002.5 |
| 20260507212133 | 15 | 270 | 16.1 | 25.7 | 0.00 | 1.55 | 0.41 | 35 | 1002.5 |
| 20260507211633 | 15 | 248 | 11.3 | 25.7 | 0.00 | 1.55 | 0.41 | 35 | 1002.4 |
| 20260507211132 | 15 | 250 | 11.3 | 27.4 | 0.00 | 1.55 | 0.41 | 36 | 1002.3 |
| 20260507210632 | 15 | 223 | 12.9 | 27.4 | 0.00 | 1.55 | 0.41 | 35 | 1002.3 |
| 20260507210131 | 16 | 236 | 9.7 | 30.6 | 0.00 | 1.55 | 0.41 | 35 | 1002.2 |
| 20260507205631 | 15 | 234 | 11.3 | 30.6 | 0.00 | 1.85 | 0.41 | 40 | 1002.3 |
| 20260507205131 | 15 | 210 | 9.7 | 40.2 | 0.00 | 1.85 | 0.41 | 41 | 1002.3 |
| 20260507204610 | 15 | 231 | 12.9 | 30.6 | 0.00 | 1.85 | 0.41 | 41 | 1002.2 |
| 20260507204048 | 15 | 235 | 8.0 | 20.9 | 0.00 | 1.85 | 0.41 | 41 | 1002.1 |
| 20260507203506 | 15 | 195 | 11.3 | 22.5 | 0.00 | 1.85 | 0.41 | 43 | 1002.1 |
| 20260507203149 | 15 | 198 | 8.0 | 24.1 | 0.00 | 1.85 | 0.41 | 42 | 1002.1 |
| 20260507203006 | 15 | 237 | 11.3 | 24.1 | 0.00 | 1.85 | 0.41 | 41 | 1001.9 |
| 20260507202505 | 16 | 216 | 14.5 | 24.1 | 0.00 | 1.85 | 0.41 | 44 | 1002.0 |
| 20260507202005 | 16 | 201 | 8.0 | 20.9 | 0.00 | 1.85 | 0.41 | 44 | 1002.0 |
| 20260507201632 | 16 | 166 | 8.0 | 24.1 | 0.00 | 1.85 | 0.41 | 47 | 1002.0 |
| 20260507201504 | 16 | 183 | 9.7 | 24.1 | 0.00 | 1.85 | 0.41 | 46 | 1001.9 |
| 20260507201004 | 15 | 224 | 11.3 | 24.1 | 0.00 | 1.85 | 0.41 | 47 | 1002.1 |
| 20260507200504 | 15 | 261 | 6.4 | 25.7 | 0.00 | 1.85 | 0.41 | 47 | 1002.1 |
| 20260507200111 | 15 | 257 | 14.5 | 25.7 | 0.00 | 1.85 | 0.41 | 48 | 1002.1 |
| 20260507200004 | 15 | 200 | 12.9 | 25.7 | 0.00 | 1.85 | 0.41 | 49 | 1002.1 |
| 20260507195503 | 14 | 238 | 3.2 | 17.7 | 0.00 | 2.29 | 0.41 | 50 | 1002.1 |
| 20260507194942 | 14 | 249 | 9.7 | 22.5 | 0.00 | 2.29 | 0.41 | 50 | 1002.1 |
| 20260507194556 | 14 | 211 | 8.0 | 24.1 | 0.00 | 2.29 | 0.41 | 50 | 1002.2 |
| 20260507194420 | 14 | 202 | 11.3 | 24.1 | 0.00 | 2.29 | 0.41 | 51 | 1002.2 |
| 20260507193920 | 15 | 260 | 11.3 | 24.1 | 0.00 | 2.29 | 0.41 | 49 | 1002.1 |
| 20260507193420 | 15 | 160 | 9.7 | 19.3 | 0.00 | 2.29 | 0.41 | 48 | 1002.1 |
| 20260507193046 | 15 | 181 | 9.7 | 24.1 | 0.00 | 2.29 | 0.41 | 51 | 1002.2 |
| 20260507192920 | 15 | 254 | 12.9 | 24.1 | 0.00 | 2.29 | 0.41 | 49 | 1002.1 |
| 20260507192337 | 15 | 238 | 11.3 | 24.1 | 0.00 | 2.29 | 0.41 | 50 | 1002.2 |
| 20260507191837 | 15 | 200 | 6.4 | 22.5 | 0.00 | 2.29 | 0.41 | 52 | 1002.2 |
| 20260507191526 | 15 | 201 | 11.3 | 29.0 | 0.00 | 2.29 | 0.41 | 49 | 1002.1 |
| 20260507191316 | 15 | 223 | 8.0 | 29.0 | 0.00 | 2.29 | 0.41 | 50 | 1002.1 |
| 20260507190754 | 15 | 224 | 12.9 | 29.0 | 0.00 | 2.29 | 0.41 | 50 | 1002.0 |
| 20260507190254 | 16 | 164 | 6.4 | 19.3 | 0.00 | 2.29 | 0.41 | 44 | 1002.0 |
| 20260507185754 | 15 | 175 | 11.3 | 19.3 | 0.00 | 2.34 | 0.41 | 48 | 1002.0 |
| 20260507185233 | 15 | 253 | 6.4 | 20.9 | 0.00 | 2.34 | 0.41 | 51 | 1002.1 |
| 20260507184732 | 15 | 214 | 9.7 | 20.9 | 0.00 | 2.34 | 0.41 | 50 | 1002.2 |
| 20260507184232 | 15 | 160 | 3.2 | 14.5 | 0.00 | 2.34 | 0.41 | 53 | 1002.1 |
| 20260507183731 | 15 | 242 | 6.4 | 14.5 | 0.00 | 2.34 | 0.41 | 51 | 1002.1 |
| 20260507183231 | 15 | 127 | 8.0 | 17.7 | 0.00 | 2.34 | 0.41 | 50 | 1002.3 |
| 20260507182731 | 15 | 201 | 9.7 | 19.3 | 0.00 | 2.34 | 0.41 | 50 | 1002.4 |
| 20260507182230 | 15 | 191 | 8.0 | 19.3 | 0.00 | 2.34 | 0.41 | 52 | 1002.5 |
| 20260507181730 | 15 | 141 | 9.7 | 17.7 | 0.00 | 2.34 | 0.41 | 55 | 1002.6 |
| 20260507181209 | 14 | 145 | 8.0 | 19.3 | 0.00 | 2.34 | 0.41 | 51 | 1002.5 |
| 20260507180710 | 15 | 199 | 9.7 | 17.7 | 0.00 | 2.34 | 0.41 | 52 | 1002.5 |
| 20260507180208 | 15 | 149 | 6.4 | 16.1 | 0.00 | 2.34 | 0.41 | 53 | 1002.5 |
| 20260507175708 | 14 | 155 | 9.7 | 16.1 | 0.00 | 2.34 | 0.41 | 55 | 1002.6 |
| 20260507175208 | 14 | 134 | 9.7 | 17.7 | 0.00 | 2.34 | 0.41 | 55 | 1002.7 |
| 20260507174646 | 14 | 144 | 6.4 | 14.5 | 0.00 | 2.34 | 0.41 | 57 | 1002.7 |
| 20260507174146 | 14 | 199 | 4.8 | 14.5 | 0.00 | 2.34 | 0.41 | 58 | 1002.7 |
| 20260507173645 | 14 | 170 | 3.2 | 14.5 | 0.00 | 2.34 | 0.41 | 60 | 1002.8 |
| 20260507173145 | 14 | 216 | 6.4 | 14.5 | 0.00 | 2.34 | 0.41 | 58 | 1002.7 |
| 20260507172645 | 14 | 224 | 3.2 | 14.5 | 0.00 | 2.34 | 0.41 | 55 | 1002.7 |
| 20260507172144 | 14 | 218 | 3.2 | 16.1 | 0.00 | 2.34 | 0.41 | 57 | 1002.8 |
| 20260507171644 | 14 | 165 | 6.4 | 14.5 | 0.00 | 2.34 | 0.41 | 58 | 1002.9 |
| 20260507171144 | 13 | 201 | 4.8 | 16.1 | 0.00 | 2.34 | 0.41 | 58 | 1002.9 |
| 20260507170643 | 13 | 160 | 4.8 | 16.1 | 0.00 | 2.34 | 0.41 | 57 | 1002.9 |
| 20260507170143 | 13 | 214 | 6.4 | 11.3 | 0.00 | 2.34 | 0.41 | 60 | 1003.0 |
| 20260507165643 | 13 | 183 | 6.4 | 12.9 | 0.00 | 2.34 | 0.41 | 57 | 1003.0 |
| 20260507165143 | 13 | 222 | 3.2 | 16.1 | 0.00 | 2.34 | 0.41 | 59 | 1003.0 |
| 20260507164643 | 13 | 205 | 4.8 | 11.3 | 0.00 | 2.34 | 0.41 | 64 | 1003.1 |
| 20260507164142 | 13 | 174 | 6.4 | 16.1 | 0.00 | 2.34 | 0.41 | 60 | 1003.2 |
| 20260507163642 | 13 | 211 | 6.4 | 16.1 | 0.00 | 2.34 | 0.41 | 60 | 1003.2 |
| 20260507163141 | 13 | 218 | 4.8 | 12.9 | 0.00 | 2.34 | 0.41 | 58 | 1003.2 |
| 20260507162641 | 14 | 134 | 8.0 | 16.1 | 0.00 | 2.34 | 0.41 | 58 | 1003.4 |
| 20260507162141 | 14 | 237 | 8.0 | 16.1 | 0.00 | 2.34 | 0.41 | 60 | 1003.4 |
| 20260507161659 | 13 | 123 | 1.6 | 12.9 | 0.00 | 2.34 | 0.41 | 66 | 1003.6 |
| 20260507161619 | 13 | 207 | 1.6 | 12.9 | 0.00 | 2.34 | 0.41 | 62 | 1003.5 |
| 20260507161119 | 13 | 159 | 6.4 | 12.9 | 0.00 | 2.34 | 0.41 | 61 | 1003.6 |
| 20260507160619 | 13 | 87 | 3.2 | 11.3 | 0.00 | 2.34 | 0.41 | 61 | 1003.6 |
| 20260507160141 | 13 | 204 | 3.2 | 11.3 | 0.00 | 2.34 | 0.41 | 61 | 1003.9 |
| 20260507160118 | 13 | 204 | 3.2 | 11.3 | 0.00 | 2.34 | 0.41 | 61 | 1003.8 |
| 20260507155618 | 13 | 187 | 1.6 | 11.3 | 0.00 | 2.34 | 0.41 | 59 | 1003.9 |
| 20260507155118 | 13 | 290 | 0.0 | 3.2 | 0.00 | 2.34 | 0.41 | 65 | 1003.9 |
| 20260507154629 | 12 | 293 | 1.6 | 8.0 | 0.00 | 2.34 | 0.41 | 64 | 1004.0 |
| 20260507154617 | 12 | 256 | 1.6 | 8.0 | 0.00 | 2.34 | 0.41 | 64 | 1003.9 |
| 20260507154117 | 12 | 255 | 3.2 | 8.0 | 0.00 | 2.34 | 0.41 | 64 | 1003.8 |
| 20260507153616 | 13 | 4 | 3.2 | 8.0 | 0.00 | 2.34 | 0.41 | 63 | 1003.9 |
| 20260507153114 | 13 | 29 | 4.8 | 11.3 | 0.00 | 2.34 | 0.41 | 58 | 1003.9 |
| 20260507153055 | 13 | 31 | 4.8 | 11.3 | 0.00 | 2.34 | 0.41 | 58 | 1003.8 |
| 20260507152555 | 13 | 38 | 0.0 | 8.0 | 0.00 | 2.34 | 0.41 | 62 | 1003.9 |
| 20260507152055 | 13 | 6 | 3.2 | 16.1 | 0.00 | 2.34 | 0.41 | 62 | 1003.9 |
| 20260507151556 | 13 | 21 | 4.8 | 16.1 | 0.00 | 2.34 | 0.41 | 63 | 1004.1 |
| 20260507151554 | 13 | 31 | 4.8 | 16.1 | 0.00 | 2.34 | 0.41 | 63 | 1004.0 |
| 20260507151054 | 13 | 68 | 6.4 | 12.9 | 0.00 | 2.34 | 0.41 | 69 | 1004.1 |
| 20260507150553 | 13 | 102 | 3.2 | 8.0 | 0.00 | 2.34 | 0.41 | 68 | 1004.3 |
| 20260507150053 | 12 | 120 | 4.8 | 9.7 | 0.00 | 2.34 | 0.41 | 66 | 1004.2 |
| 20260507150035 | 12 | 120 | 4.8 | 9.7 | 0.00 | 2.34 | 0.41 | 66 | 1004.3 |
| 20260507145552 | 13 | 181 | 4.8 | 9.7 | 0.00 | 2.34 | 0.41 | 67 | 1004.3 |
| 20260507145052 | 12 | 38 | 1.6 | 8.0 | 0.00 | 2.34 | 0.41 | 72 | 1004.3 |
| 20260507144552 | 12 | 203 | 3.2 | 8.0 | 0.00 | 2.34 | 0.41 | 64 | 1004.3 |
| 20260507144525 | 12 | 203 | 3.2 | 8.0 | 0.00 | 2.34 | 0.41 | 64 | 1004.4 |
| 20260507144052 | 12 | 269 | 1.6 | 9.7 | 0.00 | 2.34 | 0.41 | 66 | 1004.3 |
| 20260507143530 | 12 | 339 | 4.8 | 9.7 | 0.00 | 2.34 | 0.41 | 69 | 1004.3 |
| 20260507143030 | 12 | 284 | 3.2 | 8.0 | 0.00 | 2.34 | 0.41 | 71 | 1004.4 |
| 20260507142530 | 12 | 162 | 3.2 | 6.4 | 0.00 | 2.34 | 0.41 | 72 | 1004.3 |
| 20260507142029 | 12 | 198 | 3.2 | 8.0 | 0.00 | 2.34 | 0.41 | 71 | 1004.5 |
| 20260507141529 | 12 | 234 | 3.2 | 8.0 | 0.00 | 2.34 | 0.41 | 74 | 1004.7 |
| 20260507141029 | 12 | 229 | 3.2 | 9.7 | 0.00 | 2.34 | 0.41 | 70 | 1004.8 |
| 20260507140528 | 12 | 285 | 3.2 | 8.0 | 0.00 | 2.34 | 0.41 | 73 | 1004.8 |
| 20260507140007 | 12 | 264 | 0.0 | 9.7 | 0.00 | 2.34 | 0.41 | 73 | 1004.8 |
| 20260507135424 | 12 | 293 | 3.2 | 12.9 | 0.00 | 2.34 | 0.41 | 76 | 1004.7 |
| 20260507134924 | 11 | 268 | 4.8 | 12.9 | 0.00 | 2.34 | 0.41 | 75 | 1004.7 |
| 20260507134403 | 11 | 274 | 4.8 | 12.9 | 0.00 | 2.34 | 0.41 | 73 | 1004.8 |
| 20260507133902 | 11 | 245 | 6.4 | 14.5 | 0.00 | 2.34 | 0.41 | 75 | 1004.8 |
| 20260507133341 | 11 | 256 | 8.0 | 14.5 | 0.00 | 2.34 | 0.41 | 76 | 1004.8 |
| 20260507132841 | 11 | 260 | 3.2 | 14.5 | 0.00 | 2.34 | 0.41 | 76 | 1004.8 |
| 20260507132340 | 11 | 205 | 6.4 | 14.5 | 0.00 | 2.34 | 0.41 | 75 | 1004.8 |
| 20260507131840 | 10 | 262 | 4.8 | 14.5 | 0.00 | 2.34 | 0.41 | 76 | 1004.9 |
| 20260507131340 | 10 | 265 | 6.4 | 14.5 | 0.00 | 2.34 | 0.41 | 77 | 1004.9 |
| 20260507130839 | 11 | 287 | 4.8 | 14.5 | 0.00 | 2.34 | 0.41 | 78 | 1005.0 |
| 20260507130339 | 10 | 257 | 6.4 | 14.5 | 0.00 | 2.34 | 0.41 | 77 | 1005.1 |
| 20260507125839 | 10 | 226 | 8.0 | 12.9 | 0.00 | 2.34 | 0.41 | 78 | 1005.0 |
| 20260507125338 | 10 | 222 | 4.8 | 12.9 | 0.00 | 2.34 | 0.41 | 80 | 1004.8 |
| 20260507124838 | 10 | 258 | 3.2 | 12.9 | 0.00 | 2.34 | 0.41 | 81 | 1004.8 |
| 20260507124338 | 10 | 233 | 8.0 | 16.1 | 0.00 | 2.34 | 0.41 | 79 | 1004.8 |
| 20260507123838 | 10 | 244 | 4.8 | 16.1 | 0.00 | 2.34 | 0.41 | 81 | 1004.9 |
| 20260507123337 | 9 | 231 | 6.4 | 14.5 | 0.00 | 2.34 | 0.41 | 83 | 1005.0 |
| 20260507122837 | 9 | 253 | 6.4 | 22.5 | 0.00 | 2.34 | 0.41 | 81 | 1005.1 |
| 20260507122337 | 9 | 241 | 12.9 | 22.5 | 0.00 | 2.34 | 0.41 | 80 | 1005.2 |
| 20260507121837 | 9 | 226 | 11.3 | 20.9 | 0.00 | 2.34 | 0.41 | 81 | 1005.2 |
| 20260507121337 | 9 | 266 | 4.8 | 16.1 | 0.00 | 2.34 | 0.41 | 85 | 1005.3 |
| 20260507120815 | 9 | 235 | 6.4 | 16.1 | 0.00 | 2.34 | 0.41 | 83 | 1005.4 |
| 20260507120254 | 8 | 256 | 4.8 | 22.5 | 0.00 | 2.34 | 0.41 | 84 | 1005.3 |
| 20260507115754 | 8 | 207 | 11.3 | 22.5 | 0.00 | 2.34 | 0.41 | 84 | 1005.4 |
| 20260507115253 | 8 | 250 | 3.2 | 17.7 | 0.00 | 2.34 | 0.41 | 85 | 1005.4 |
| 20260507114753 | 8 | 255 | 6.4 | 17.7 | 0.00 | 2.34 | 0.41 | 87 | 1005.3 |
| 20260507114651 | 8 | 251 | 8.0 | 14.5 | 0.00 | 2.34 | 0.41 | 86 | 1005.3 |
| 20260507114253 | 8 | 212 | 4.8 | 11.3 | 0.00 | 2.34 | 0.41 | 88 | 1005.2 |
| 20260507113752 | 8 | 188 | 3.2 | 9.7 | 0.00 | 2.34 | 0.41 | 89 | 1005.3 |
| 20260507113252 | 8 | 168 | 3.2 | 9.7 | 0.00 | 2.34 | 0.41 | 89 | 1005.6 |
| 20260507113137 | 8 | 167 | 4.8 | 11.3 | 0.00 | 2.34 | 0.41 | 89 | 1005.7 |
| 20260507112752 | 8 | 227 | 3.2 | 11.3 | 0.00 | 2.34 | 0.41 | 89 | 1005.6 |
| 20260507112230 | 7 | 236 | 6.4 | 9.7 | 0.00 | 2.34 | 0.41 | 89 | 1005.4 |
| 20260507111730 | 7 | 206 | 4.8 | 12.9 | 0.00 | 2.34 | 0.41 | 91 | 1005.1 |
| 20260507111622 | 7 | 211 | 4.8 | 12.9 | 0.00 | 2.34 | 0.41 | 92 | 1005.2 |
| 20260507111148 | 7 | 233 | 4.8 | 12.9 | 0.00 | 2.34 | 0.41 | 91 | 1005.3 |
| 20260507110647 | 7 | 232 | 4.8 | 9.7 | 0.00 | 2.34 | 0.41 | 93 | 1005.2 |
| 20260507110147 | 7 | 235 | 3.2 | 9.7 | 0.00 | 2.34 | 0.41 | 94 | 1005.2 |
| 20260507110059 | 7 | 233 | 3.2 | 9.7 | 0.00 | 2.34 | 0.41 | 94 | 1005.2 |
| 20260507105646 | 6 | 214 | 3.2 | 8.0 | 0.00 | 2.34 | 0.41 | 94 | 1005.3 |
| 20260507105146 | 6 | 263 | 1.6 | 8.0 | 0.00 | 2.34 | 0.41 | 95 | 1005.4 |
| 20260507104646 | 6 | 247 | 3.2 | 8.0 | 0.00 | 2.34 | 0.41 | 95 | 1005.5 |
| 20260507104543 | 6 | 276 | 3.2 | 8.0 | 0.00 | 2.34 | 0.41 | 95 | 1005.5 |
| 20260507104103 | 6 | 293 | 3.2 | 6.4 | 0.00 | 2.34 | 0.41 | 95 | 1005.3 |
| 20260507103603 | 6 | 273 | 1.6 | 12.9 | 0.00 | 2.34 | 0.41 | 95 | 1004.9 |
| 20260507103103 | 6 | 244 | 3.2 | 12.9 | 0.00 | 2.34 | 0.41 | 96 | 1004.9 |
| 20260507103029 | 6 | 263 | 3.2 | 9.7 | 0.00 | 2.34 | 0.41 | 96 | 1004.9 |
| 20260507102602 | 6 | 199 | 3.2 | 6.4 | 0.00 | 2.34 | 0.41 | 96 | 1004.9 |
| 20260507102102 | 6 | 198 | 1.6 | 6.4 | 0.00 | 2.34 | 0.41 | 97 | 1005.1 |
| 20260507101601 | 6 | 199 | 1.6 | 6.4 | 0.00 | 2.34 | 0.41 | 97 | 1005.0 |
| 20260507101511 | 6 | 199 | 1.6 | 6.4 | 0.00 | 2.34 | 0.41 | 97 | 1004.9 |
| 20260507101101 | 6 | 185 | 0.0 | 4.8 | 0.00 | 2.34 | 0.41 | 97 | 1004.8 |